Time,TemperatureF,DewpointF,PressureIn,WindDirection,WindDirectionDegrees,WindSpeedMPH,WindSpeedGustMPH,Humidity,HourlyPrecipIn,Conditions,Clouds,dailyrainin,SolarRadiationWatts/m^2,SoftwareType,DateUTC
2015-05-04 00:02:00,60.2,56.0,29.84,North,354,1.0,1.0,86,0.00,,,0.00,0,Wunderground v.1.15,2015-05-04 05:02:00,
2015-05-04 00:12:00,59.9,56.0,29.86,North,354,2.0,2.0,87,0.00,,,0.00,0,Wunderground v.1.15,2015-05-04 05:12:00,
2015-05-04 00:22:00,59.6,55.7,29.86,North,354,2.0,2.0,87,0.00,,,0.00,0,Wunderground v.1.15,2015-05-04 05:22:00,
2015-05-04 00:32:00,59.2,55.6,29.86,North,354,3.0,3.0,88,0.00,,,0.00,0,Wunderground v.1.15,2015-05-04 05:32:00,
2015-05-04 00:42:00,58.9,55.4,29.85,North,354,2.0,2.0,88,0.00,,,0.00,0,Wunderground v.1.15,2015-05-04 05:42:00,
2015-05-04 00:52:00,58.6,55.4,29.84,North,354,2.0,2.0,89,0.00,,,0.00,0,Wunderground v.1.15,2015-05-04 05:52:00,
2015-05-04 01:02:00,58.4,55.2,29.84,North,354,1.0,1.0,89,0.00,,,0.00,0,Wunderground v.1.15,2015-05-04 06:02:00,
2015-05-04 01:12:00,58.3,55.1,29.84,North,354,1.0,3.0,89,0.00,,,0.00,0,Wunderground v.1.15,2015-05-04 06:12:00,
2015-05-04 01:22:00,58.0,55.7,29.85,North,354,3.0,3.0,92,0.00,,,0.01,0,Wunderground v.1.15,2015-05-04 06:22:00,
2015-05-04 01:32:00,57.6,55.9,29.85,North,354,3.0,4.0,94,0.10,,,0.03,0,Wunderground v.1.15,2015-05-04 06:32:00,
2015-05-04 01:42:00,57.0,55.9,29.84,North,354,3.0,3.0,96,0.04,,,0.03,0,Wunderground v.1.15,2015-05-04 06:42:00,
2015-05-04 01:52:00,56.9,56.1,29.83,North,354,2.0,2.0,97,0.00,,,0.03,0,Wunderground v.1.15,2015-05-04 06:52:00,
2015-05-04 02:02:00,56.9,56.3,29.83,North,354,0.0,0.0,98,0.00,,,0.03,0,Wunderground v.1.15,2015-05-04 07:02:00,
2015-05-04 02:12:00,56.3,55.7,29.83,North,354,1.0,2.0,98,0.00,,,0.03,0,Wunderground v.1.15,2015-05-04 07:12:00,
2015-05-04 02:22:00,56.0,55.7,29.85,North,354,2.0,4.0,99,0.00,,,0.03,0,Wunderground v.1.15,2015-05-04 07:22:00,
2015-05-04 02:32:00,55.7,55.4,29.85,North,354,2.0,2.0,99,0.00,,,0.04,0,Wunderground v.1.15,2015-05-04 07:32:00,
2015-05-04 02:42:00,55.6,55.6,29.85,North,354,1.0,3.0,100,0.05,,,0.05,0,Wunderground v.1.15,2015-05-04 07:42:00,
2015-05-04 02:52:00,56.0,56.0,29.84,North,354,3.0,3.0,100,0.07,,,0.06,0,Wunderground v.1.15,2015-05-04 07:52:00,
2015-05-04 03:02:00,56.0,56.0,29.84,North,354,4.0,5.0,100,0.08,,,0.08,0,Wunderground v.1.15,2015-05-04 08:02:00,
2015-05-04 03:12:00,56.0,56.0,29.83,SSE,147,5.0,5.0,100,0.06,,,0.08,0,Wunderground v.1.15,2015-05-04 08:12:00,
2015-05-04 03:22:00,55.6,55.6,29.82,SSE,147,2.0,2.0,100,0.00,,,0.08,0,Wunderground v.1.15,2015-05-04 08:22:00,
2015-05-04 03:32:00,55.3,55.3,29.82,SSE,147,1.0,1.0,100,0.00,,,0.08,0,Wunderground v.1.15,2015-05-04 08:32:00,
2015-05-04 03:42:00,55.1,55.1,29.82,SSE,147,0.0,0.0,100,0.00,,,0.08,0,Wunderground v.1.15,2015-05-04 08:42:00,
2015-05-04 03:52:00,55.0,55.0,29.82,SSE,147,0.0,0.0,100,0.00,,,0.08,0,Wunderground v.1.15,2015-05-04 08:52:00,
2015-05-04 04:02:00,55.0,55.0,29.82,SSE,147,0.0,0.0,100,0.00,,,0.08,0,Wunderground v.1.15,2015-05-04 09:02:00,
2015-05-04 04:12:00,55.0,55.0,29.83,SSE,147,0.0,0.0,100,0.00,,,0.08,0,Wunderground v.1.15,2015-05-04 09:12:00,
2015-05-04 04:22:00,55.1,55.1,29.84,SSE,147,0.0,0.0,100,0.00,,,0.08,0,Wunderground v.1.15,2015-05-04 09:22:00,
2015-05-04 04:32:00,54.8,54.8,29.84,SSE,147,1.0,3.0,100,0.00,,,0.08,0,Wunderground v.1.15,2015-05-04 09:32:00,
2015-05-04 04:42:00,54.7,54.7,29.87,SSE,147,2.0,2.0,100,0.00,,,0.08,0,Wunderground v.1.15,2015-05-04 09:42:00,
2015-05-04 04:52:00,54.7,54.7,29.87,SSE,147,0.0,0.0,100,0.00,,,0.08,0,Wunderground v.1.15,2015-05-04 09:52:00,
2015-05-04 05:02:00,54.8,54.8,29.87,SSE,147,1.0,4.0,100,0.00,,,0.08,0,Wunderground v.1.15,2015-05-04 10:02:00,
2015-05-04 05:12:00,54.8,54.8,29.87,SSE,147,1.0,2.0,100,0.00,,,0.08,0,Wunderground v.1.15,2015-05-04 10:12:00,
2015-05-04 05:22:00,55.4,55.4,29.88,NNW,343,4.0,6.0,100,0.00,,,0.08,0,Wunderground v.1.15,2015-05-04 10:22:00,
2015-05-04 05:32:00,55.7,55.7,29.88,NNW,342,6.0,7.0,100,0.00,,,0.08,0,Wunderground v.1.15,2015-05-04 10:32:00,
2015-05-04 05:42:00,55.6,55.6,29.89,NNW,342,5.0,5.0,100,0.00,,,0.08,0,Wunderground v.1.15,2015-05-04 10:42:00,
2015-05-04 05:52:00,55.6,55.6,29.89,NNW,342,2.0,2.0,100,0.00,,,0.08,0,Wunderground v.1.15,2015-05-04 10:52:00,
2015-05-04 06:02:00,55.6,55.6,29.89,NNW,342,1.0,1.0,100,0.00,,,0.08,0,Wunderground v.1.15,2015-05-04 11:02:00,
2015-05-04 06:12:00,55.6,55.6,29.91,NNW,342,1.0,3.0,100,0.00,,,0.08,0,Wunderground v.1.15,2015-05-04 11:12:00,
2015-05-04 06:22:00,55.7,55.7,29.91,NNW,342,3.0,4.0,100,0.00,,,0.08,0,Wunderground v.1.15,2015-05-04 11:22:00,
2015-05-04 06:32:00,56.0,56.0,29.91,NNW,342,4.0,6.0,100,0.00,,,0.08,19,Wunderground v.1.15,2015-05-04 11:32:00,
2015-05-04 06:42:00,56.0,56.0,29.92,NNW,342,5.0,5.0,100,0.00,,,0.08,39,Wunderground v.1.15,2015-05-04 11:42:00,
2015-05-04 06:52:00,56.0,56.0,29.93,North,353,5.0,9.0,100,0.00,,,0.08,56,Wunderground v.1.15,2015-05-04 11:52:00,
2015-05-04 07:02:00,56.2,56.2,29.93,NNW,339,5.0,5.0,100,0.00,,,0.08,88,Wunderground v.1.15,2015-05-04 12:02:00,
2015-05-04 07:12:00,56.2,56.2,29.94,NNW,336,4.0,7.0,100,0.00,,,0.08,90,Wunderground v.1.15,2015-05-04 12:12:00,
2015-05-04 07:22:00,55.9,55.9,29.95,NNW,329,6.0,6.0,100,0.00,,,0.08,128,Wunderground v.1.15,2015-05-04 12:22:00,
2015-05-04 07:32:00,55.6,55.6,29.95,NNW,347,6.0,6.0,100,0.00,,,0.08,208,Wunderground v.1.15,2015-05-04 12:32:00,
2015-05-04 07:42:00,55.9,53.3,29.96,North,356,7.0,7.0,91,0.00,,,0.08,213,Wunderground v.1.15,2015-05-04 12:42:00,
2015-05-04 07:52:00,56.6,51.2,29.97,NNW,340,6.0,8.0,82,0.00,,,0.08,211,Wunderground v.1.15,2015-05-04 12:52:00,
2015-05-04 08:02:00,57.3,49.8,29.97,NNE,14,4.0,6.0,76,0.00,,,0.08,222,Wunderground v.1.15,2015-05-04 13:02:00,
2015-05-04 08:12:00,58.3,48.9,29.97,North,0,5.0,5.0,71,0.00,,,0.08,273,Wunderground v.1.15,2015-05-04 13:12:00,
2015-05-04 08:22:00,59.3,48.7,29.98,North,353,4.0,7.0,68,0.00,,,0.08,357,Wunderground v.1.15,2015-05-04 13:22:00,
2015-05-04 08:32:00,59.8,47.6,29.98,NNE,27,6.0,6.0,64,0.00,,,0.08,370,Wunderground v.1.15,2015-05-04 13:32:00,
2015-05-04 08:42:00,60.1,46.6,29.99,North,4,7.0,9.0,61,0.00,,,0.08,406,Wunderground v.1.15,2015-05-04 13:42:00,
2015-05-04 08:52:00,60.5,46.5,29.99,North,356,6.0,10.0,60,0.00,,,0.08,428,Wunderground v.1.15,2015-05-04 13:52:00,
2015-05-04 09:02:00,61.3,45.9,29.99,North,0,5.0,8.0,57,0.00,,,0.08,473,Wunderground v.1.15,2015-05-04 14:02:00,
2015-05-04 09:12:00,61.8,45.0,29.99,North,354,6.0,6.0,54,0.00,,,0.08,526,Wunderground v.1.15,2015-05-04 14:12:00,
2015-05-04 09:22:00,62.4,45.0,29.99,North,0,6.0,6.0,53,0.00,,,0.08,558,Wunderground v.1.15,2015-05-04 14:22:00,
2015-05-04 09:32:00,62.9,47.0,29.99,North,0,6.0,6.0,56,0.00,,,0.08,614,Wunderground v.1.15,2015-05-04 14:32:00,
2015-05-04 09:42:00,63.4,44.9,29.99,North,359,6.0,6.0,51,0.00,,,0.08,568,Wunderground v.1.15,2015-05-04 14:42:00,
2015-05-04 09:52:00,63.5,44.5,30.00,North,1,7.0,7.0,50,0.00,,,0.08,626,Wunderground v.1.15,2015-05-04 14:52:00,
2015-05-04 10:02:00,64.2,44.1,30.00,NE,35,6.0,7.0,48,0.00,,,0.08,663,Wunderground v.1.15,2015-05-04 15:02:00,
2015-05-04 10:12:00,64.0,43.9,30.01,NNW,342,8.0,8.0,48,0.00,,,0.08,681,Wunderground v.1.15,2015-05-04 15:12:00,
2015-05-04 10:22:00,64.0,42.8,30.02,NNW,335,8.0,8.0,46,0.00,,,0.08,700,Wunderground v.1.15,2015-05-04 15:22:00,
2015-05-04 10:32:00,64.0,43.4,30.02,NNW,337,8.0,9.0,47,0.00,,,0.08,716,Wunderground v.1.15,2015-05-04 15:32:00,
2015-05-04 10:42:00,64.5,43.3,30.03,North,0,7.0,7.0,46,0.00,,,0.08,730,Wunderground v.1.15,2015-05-04 15:42:00,
2015-05-04 10:52:00,65.2,42.7,30.04,NNE,21,7.0,7.0,44,0.00,,,0.08,753,Wunderground v.1.15,2015-05-04 15:52:00,
2015-05-04 11:02:00,65.3,43.4,30.04,North,3,8.0,8.0,45,0.00,,,0.08,776,Wunderground v.1.15,2015-05-04 16:02:00,
2015-05-04 11:12:00,65.5,41.8,30.05,North,4,7.0,7.0,42,0.00,,,0.08,785,Wunderground v.1.15,2015-05-04 16:12:00,
2015-05-04 11:22:00,65.6,41.9,30.06,NNW,343,7.0,7.0,42,0.00,,,0.08,804,Wunderground v.1.15,2015-05-04 16:22:00,
2015-05-04 11:32:00,66.1,41.7,30.06,NNW,343,7.0,9.0,41,0.00,,,0.08,816,Wunderground v.1.15,2015-05-04 16:32:00,
2015-05-04 11:42:00,65.6,41.3,30.06,North,357,8.0,10.0,41,0.00,,,0.08,825,Wunderground v.1.15,2015-05-04 16:42:00,
2015-05-04 11:52:00,65.8,41.4,30.06,North,349,8.0,8.0,41,0.00,,,0.08,834,Wunderground v.1.15,2015-05-04 16:52:00,
2015-05-04 12:02:00,66.6,38.8,30.06,North,10,7.0,7.0,36,0.00,,,0.08,838,Wunderground v.1.15,2015-05-04 17:02:00,
2015-05-04 12:12:00,66.6,38.8,30.06,NNW,332,7.0,12.0,36,0.00,,,0.08,845,Wunderground v.1.15,2015-05-04 17:12:00,
2015-05-04 12:22:00,66.8,40.4,30.07,NNE,30,8.0,9.0,38,0.00,,,0.08,850,Wunderground v.1.15,2015-05-04 17:22:00,
2015-05-04 12:32:00,67.1,42.0,30.07,NE,41,6.0,12.0,40,0.00,,,0.08,859,Wunderground v.1.15,2015-05-04 17:32:00,
2015-05-04 12:42:00,67.6,42.4,30.07,NE,40,7.0,7.0,40,0.00,,,0.08,829,Wunderground v.1.15,2015-05-04 17:42:00,
2015-05-04 12:52:00,67.9,40.7,30.07,NW,318,7.0,7.0,37,0.00,,,0.08,862,Wunderground v.1.15,2015-05-04 17:52:00,
2015-05-04 13:02:00,68.1,40.8,30.07,NNW,336,7.0,7.0,37,0.00,,,0.08,857,Wunderground v.1.15,2015-05-04 18:02:00,
2015-05-04 13:12:00,68.1,40.1,30.08,NNE,13,7.0,11.0,36,0.00,,,0.08,820,Wunderground v.1.15,2015-05-04 18:12:00,
2015-05-04 13:22:00,68.3,39.6,30.08,NNW,344,8.0,8.0,35,0.00,,,0.08,838,Wunderground v.1.15,2015-05-04 18:22:00,
2015-05-04 13:32:00,68.6,39.8,30.08,NNW,346,6.0,6.0,35,0.00,,,0.08,852,Wunderground v.1.15,2015-05-04 18:32:00,
2015-05-04 13:42:00,66.6,44.6,30.09,South,174,4.0,6.0,45,0.00,,,0.08,838,Wunderground v.1.15,2015-05-04 18:42:00,
2015-05-04 13:52:00,65.5,44.7,30.09,East,99,7.0,7.0,47,0.00,,,0.08,802,Wunderground v.1.15,2015-05-04 18:52:00,
2015-05-04 14:02:00,65.2,45.5,30.09,ESE,112,7.0,7.0,49,0.00,,,0.08,799,Wunderground v.1.15,2015-05-04 19:02:00,
2015-05-04 14:12:00,65.5,45.8,30.10,ENE,58,8.0,9.0,49,0.00,,,0.08,797,Wunderground v.1.15,2015-05-04 19:12:00,
2015-05-04 14:22:00,65.5,45.3,30.10,ENE,72,8.0,9.0,48,0.00,,,0.08,816,Wunderground v.1.15,2015-05-04 19:22:00,
2015-05-04 14:32:00,63.5,44.5,30.10,ESE,113,8.0,10.0,50,0.00,,,0.08,790,Wunderground v.1.15,2015-05-04 19:32:00,
2015-05-04 14:42:00,63.1,45.2,30.11,SE,127,9.0,9.0,52,0.00,,,0.08,765,Wunderground v.1.15,2015-05-04 19:42:00,
2015-05-04 14:52:00,62.3,43.4,30.12,ESE,106,8.0,8.0,50,0.00,,,0.08,758,Wunderground v.1.15,2015-05-04 19:52:00,
2015-05-04 15:02:00,62.4,44.5,30.12,East,100,8.0,8.0,52,0.00,,,0.08,727,Wunderground v.1.15,2015-05-04 20:02:00,
2015-05-04 15:12:00,61.6,43.3,30.13,East,100,9.0,10.0,51,0.00,,,0.08,707,Wunderground v.1.15,2015-05-04 20:12:00,
2015-05-04 15:22:00,61.2,43.4,30.13,ENE,75,10.0,10.0,52,0.00,,,0.08,691,Wunderground v.1.15,2015-05-04 20:22:00,
2015-05-04 15:32:00,61.8,43.5,30.13,NE,56,8.0,10.0,51,0.00,,,0.08,686,Wunderground v.1.15,2015-05-04 20:32:00,
2015-05-04 15:42:00,62.4,42.4,30.13,ENE,66,10.0,10.0,48,0.00,,,0.08,653,Wunderground v.1.15,2015-05-04 20:42:00,
2015-05-04 15:52:00,62.6,42.1,30.13,NE,41,11.0,11.0,47,0.00,,,0.08,633,Wunderground v.1.15,2015-05-04 20:52:00,
2015-05-04 16:02:00,62.3,41.8,30.13,East,79,9.0,9.0,47,0.00,,,0.08,614,Wunderground v.1.15,2015-05-04 21:02:00,
2015-05-04 16:12:00,60.5,42.3,30.13,East,97,9.0,9.0,51,0.00,,,0.08,545,Wunderground v.1.15,2015-05-04 21:12:00,
2015-05-04 16:22:00,59.5,42.3,30.14,ENE,72,10.0,12.0,53,0.00,,,0.08,498,Wunderground v.1.15,2015-05-04 21:22:00,
2015-05-04 16:32:00,59.0,42.8,30.14,ENE,75,9.0,9.0,55,0.00,,,0.08,561,Wunderground v.1.15,2015-05-04 21:32:00,
2015-05-04 16:42:00,58.4,42.3,30.15,East,92,9.0,9.0,55,0.00,,,0.08,401,Wunderground v.1.15,2015-05-04 21:42:00,
2015-05-04 16:52:00,57.8,41.7,30.15,ENE,58,9.0,11.0,55,0.00,,,0.08,438,Wunderground v.1.15,2015-05-04 21:52:00,
2015-05-04 17:02:00,56.7,41.2,30.15,East,89,9.0,9.0,56,0.00,,,0.08,405,Wunderground v.1.15,2015-05-04 22:02:00,
2015-05-04 17:12:00,56.0,41.0,30.15,East,95,10.0,10.0,57,0.00,,,0.08,287,Wunderground v.1.15,2015-05-04 22:12:00,